Content
SEND FEEDBACK

Daily
Averages
Monthly
Summary
Canada

PRINCE RUPERT, BRITISH COLUMBIA


Home > North America > Canada > British Columbia
Elevation: 111 feet     Latitude: 54 17N     Longitude: 130 27W

WEATHER
 
SELECT A DAY
Number of Records: 350,110;   Date Range: 1/1/95 - 7/10/14
 
SHARE

PRINT THIS DATA

[ ← Previous Day ]
WEATHER ALMANAC - FEBRUARY 16, 2013
[ Next Day → ]
[ °C ]   °F
Weather ElementAverageHighLow
Temperature40 °F44.6 °F (1:00 pm)37.4 °F (8:00 pm)
Dewpoint37.5 °F39.2 °F (12:36 am)33.8 °F (1:00 pm)
Humidity91.5 %100 % (2:00 am)66 % (1:00 pm)
Barometer30.10 in30.25 in (11:40 pm)29.98 in (12:36 am)
Wind Speed5.8 mph12.7 mph (1:00 am)
Wind Gust20.7 mph (2:11 am)
Weather ElementAverage
Visibility8 mi
Wind DirectionS (176.1 °)

Weather ElementTotal
Precipitation---
Heating Degree Days24 (Base 65)
Averaged from 66 records on February 16, 2013
WEATHER CONDITIONS BREAKOUT
WIND DIRECTION BREAKOUT
WEATHER BY HOUR - FEBRUARY 16, 2013
[ °C ]   °F
Local TimeTemperatureDewpointHumidityBarometerVisibilityWind DirectionWind SpeedGust SpeedPrecipitationEventsConditions
12:36 AM41.0 °F39.2 °F93 %29.98 in6.0 miSE (140°)10.4 mphRainLight Rain
1:00 AM41.0 °F39.2 °F93 %29.98 in8.0 miSE (130°)12.7 mph18.4 mphRainLight Rain
2:00 AM39.2 °F39.2 °F100 %29.99 in9.0 miSE (140°)11.5 mphRainLight Rain
2:11 AM39.2 °F37.4 °F93 %29.99 in9.0 miSSE (150°)12.7 mph20.7 mphRainLight Rain
3:00 AM39.2 °F39.2 °F100 %29.99 in9.0 miSSE (160°)9.2 mphRainLight Rain
3:41 AM39.2 °F39.2 °F100 %30.00 in9.0 miSW (220°)5.8 mphOvercast
3:45 AM39.2 °F39.2 °F100 %30.00 in5.0 miSSW (210°)4.6 mphRainLight Rain
3:57 AM39.2 °F39.2 °F100 %30.00 in6.0 miSouth (180°)4.6 mphRainLight Rain
4:00 AM39.2 °F39.2 °F100 %30.00 in9.0 miSouth (170°)4.6 mphRainLight Rain
4:08 AM39.2 °F39.2 °F100 %30.00 in9.0 miSSE (160°)4.6 mphRainLight Rain
4:16 AM39.2 °F39.2 °F100 %30.00 in9.0 miSouth (180°)4.6 mphOvercast
4:26 AM39.2 °F39.2 °F100 %30.00 in9.0 miSE (140°)4.6 mphOvercast
4:32 AM39.2 °F39.2 °F100 %30.01 in9.0 miEast (80°)3.5 mphOvercast
4:37 AM39.2 °F39.2 °F100 %30.00 in5.0 miVariable2.3 mphOvercast
4:41 AM39.2 °F39.2 °F100 %30.00 in3.0 miCalmRainLight Rain
4:42 AM39.2 °F39.2 °F100 %30.00 in2.5 miCalmRainLight Rain
4:55 AM39.2 °F39.2 °F100 %30.01 in3.0 miSouth (180°)6.9 mphRainLight Rain
5:00 AM39.2 °F39.2 °F100 %30.01 in4.0 miVariable8.1 mphRainLight Rain
5:02 AM39.2 °F39.2 °F100 %30.01 in6.0 miVariable3.5 mphRainLight Rain
5:11 AM39.2 °F39.2 °F100 %30.01 in7.0 miCalmOvercast
5:12 AM39.2 °F39.2 °F100 %30.01 in5.0 miCalmOvercast
5:14 AM41.0 °F39.2 °F93 %30.01 in4.0 miCalmOvercast
5:15 AM41.0 °F39.2 °F93 %30.01 in4.0 miCalmRainLight Rain
5:21 AM41.0 °F39.2 °F93 %30.01 in5.0 miVariable5.8 mphRainLight Rain
5:22 AM41.0 °F39.2 °F93 %30.01 in6.0 miVariable5.8 mphRainLight Rain
5:29 AM41.0 °F39.2 °F93 %30.01 in9.0 miWNW (300°)3.5 mphOvercast
5:48 AM41.0 °F39.2 °F93 %30.02 in9.0 miNW (310°)5.8 mphOvercast
6:00 AM41.0 °F37.4 °F87 %30.02 in9.0 miNW (310°)9.2 mphOvercast
6:49 AM41.0 °F37.4 °F87 %30.03 in9.0 miWNW (300°)8.1 mph19.6 mphOvercast
7:00 AM41.0 °F37.4 °F87 %30.03 in9.0 miNW (320°)5.8 mphOvercast
7:42 AM39.2 °F37.4 °F93 %30.03 in9.0 miNW (320°)8.1 mphOvercast
8:00 AM39.2 °F37.4 °F93 %30.04 in9.0 miNNW (330°)6.9 mphScattered Clouds
9:00 AM41.0 °F37.4 °F87 %30.06 in9.0 miWNW (300°)4.6 mphMostly Cloudy
10:00 AM41.0 °F37.4 °F87 %30.09 in9.0 miWNW (300°)6.9 mphOvercast
11:00 AM42.8 °F37.4 °F81 %30.10 in9.0 miNW (310°)9.2 mphScattered Clouds
12:00 PM42.8 °F35.6 °F76 %30.13 in9.0 miWNW (290°)6.9 mphMostly Cloudy
1:00 PM44.6 °F33.8 °F66 %30.14 in9.0 miWNW (300°)9.2 mphClear
2:00 PM44.6 °F35.6 °F71 %30.16 in9.0 miWest (270°)9.2 mphScattered Clouds
2:24 PM42.8 °F35.6 °F76 %30.16 in9.0 miWest (280°)6.9 mphMostly Cloudy
2:27 PM42.8 °F35.6 °F76 %30.16 in9.0 miWest (270°)8.1 mphMostly Cloudy
3:00 PM44.6 °F37.4 °F76 %30.16 in9.0 miWNW (290°)8.1 mphScattered Clouds
3:41 PM42.8 °F37.4 °F81 %30.17 in9.0 miWNW (290°)5.8 mphOvercast
3:50 PM44.6 °F37.4 °F76 %30.17 in9.0 miWNW (290°)8.1 mphOvercast
4:00 PM42.8 °F37.4 °F81 %30.17 in9.0 miWest (280°)8.1 mphMostly Cloudy
5:00 PM42.8 °F35.6 °F76 %30.18 in9.0 miNW (320°)4.6 mphMostly Cloudy
6:00 PM41.0 °F33.8 °F76 %30.19 in9.0 miWNW (300°)3.5 mphMostly Cloudy
7:00 PM39.2 °F35.6 °F87 %30.20 in9.0 miNorth (350°)4.6 mphMostly Cloudy
8:00 PM37.4 °F35.6 °F93 %30.21 in9.0 miVariable2.3 mphMostly Cloudy
9:00 PM37.4 °F37.4 °F100 %30.22 in9.0 miEast (100°)5.8 mphMostly Cloudy
9:05 PM37.4 °F37.4 °F100 %30.22 in9.0 miEast (90°)5.8 mphMostly Cloudy
9:07 PM37.4 °F37.4 °F100 %30.22 in9.0 miEast (90°)4.6 mphMostly Cloudy
9:08 PM37.4 °F37.4 °F100 %30.22 in9.0 miEast (100°)4.6 mphMostly Cloudy
9:49 PM37.4 °F37.4 °F100 %30.22 in9.0 miNE (50°)4.6 mphOvercast
9:50 PM37.4 °F37.4 °F100 %30.22 in9.0 miENE (60°)4.6 mphOvercast
9:55 PM37.4 °F37.4 °F100 %30.22 in9.0 miEast (90°)4.6 mphMostly Cloudy
10:00 PM37.4 °F35.6 °F93 %30.22 in9.0 miEast (90°)6.9 mphMostly Cloudy
10:38 PM37.4 °F35.6 °F93 %30.23 in9.0 miENE (70°)3.5 mphOvercast
11:00 PM37.4 °F35.6 °F93 %30.24 in9.0 miVariable4.6 mphOvercast
11:24 PM39.2 °F35.6 °F87 %30.24 in9.0 miNW (320°)4.6 mphOvercast
11:26 PM39.2 °F35.6 °F87 %30.24 in9.0 miNNW (330°)5.8 mphOvercast
11:34 PM39.2 °F35.6 °F87 %30.24 in9.0 miNNW (340°)6.9 mphRainLight Rain
11:37 PM39.2 °F35.6 °F87 %30.24 in9.0 miNW (320°)6.9 mphRainLight Rain
11:40 PM39.2 °F35.6 °F87 %30.25 in9.0 miNNW (340°)5.8 mphRainLight Rain
11:43 PM39.2 °F35.6 °F87 %30.25 in9.0 miNW (320°)8.1 mphRainLight Rain
11:46 PM39.2 °F35.6 °F87 %30.24 in9.0 miNorth (10°)6.9 mphRainLight Rain
11:49 PM37.4 °F37.4 °F100 %30.24 in9.0 miNNE (30°)5.8 mphRainLight Rain
Hourly data recorded from CYPR, located miles away from Prince Rupert, British Columbia







STORIES FROM OUR PARTNERS